sat.trackr.live / text

‹ back to catalog

YAOGAN-12

NORAD 37875 · 2011-066B

PAYLOAD ACTIVE UNKNOWN

§ Identity

Operator
Country
PRC
Launch date
2011-11-09
Launch site
TAISC
Launch vehicle
Mass (kg)
RCS (m²)
5.75

External: N2YO · Heavens-Above · Gunter

§ Orbital elements

Epoch: 2026-09-13T04:58:12.650304Z

Period
94.28 min
Inclination
97.1075°
Eccentricity
0.0008065
Mean motion
15.27348078 rev/d
Perigee alt
478.2 km
Apogee alt
489.3 km
Semi-major
6,861.9 km
B*
1.1215e-4
RAAN
290.6483°
Arg perigee
270.1761°
Mean anomaly
89.8554°
Rev number
82,547

§ Raw data

YAOGAN-121 37875U 11066B   26256.20709086  .00002936  00000+0  11215-3 0  99992 37875  97.1075 290.6483 0008065 270.1761  89.8554 15.27348078825476

JSON: /api/v1/satellites/37875 · /tle

For live sub-satellite position, see the globe view (requires WebGL).

§ Visibility from observer

Set your observer location to see the next 7 days of passes ≥ 10°. The values pass through the URL so the page stays shareable.

No JS? Fill the form by hand. The geolocation button needs JavaScript.

§ Radio — SatNOGS DB

ModeDescriptionDownlinkUplink
FM S-band telemetry 2.208 GHz

1 transmitter · refreshed weekly from db.satnogs.org